Year,Month,Day,Hour,Minute,Value (Times are PST for temperature in C)
2010,05,25,17,45,13.80
2010,05,25,17,46,13.90
2010,05,25,17,47,13.90
2010,05,25,17,48,13.90
2010,05,25,17,49,14.00
2010,05,25,17,50,14.00
2010,05,25,17,51,13.90
2010,05,25,17,52,13.90
2010,05,25,17,53,13.90
2010,05,25,17,54,13.90
2010,05,25,17,55,13.90
2010,05,25,17,56,13.90
2010,05,25,17,57,13.90
2010,05,25,17,58,13.90
2010,05,25,17,59,13.80
2010,05,25,18,00,13.80
2010,05,25,18,01,13.80
2010,05,25,18,02,13.90
2010,05,25,18,03,13.90
2010,05,25,18,04,13.90
2010,05,25,18,05,13.80
2010,05,25,18,06,13.80
2010,05,25,18,07,13.80
2010,05,25,18,08,13.80
2010,05,25,18,09,13.80
2010,05,25,18,10,13.80
2010,05,25,18,11,13.80
2010,05,25,18,12,13.80
2010,05,25,18,13,13.80
2010,05,25,18,14,13.70
2010,05,25,18,15,13.70
2010,05,25,18,16,13.80
2010,05,25,18,17,13.80
2010,05,25,18,18,13.80
2010,05,25,18,19,13.80
2010,05,25,18,20,13.80
2010,05,25,18,21,13.80
2010,05,25,18,22,13.80
2010,05,25,18,23,13.80
2010,05,25,18,24,13.80
2010,05,25,18,25,13.80
2010,05,25,18,26,13.80
2010,05,25,18,27,13.80
2010,05,25,18,28,13.80
2010,05,25,18,29,13.80
2010,05,25,18,30,13.80
2010,05,25,18,31,13.90
2010,05,25,18,32,13.90
2010,05,25,18,33,13.90
2010,05,25,18,34,13.90
2010,05,25,18,35,13.90
2010,05,25,18,36,14.00
2010,05,25,18,37,14.00
2010,05,25,18,38,14.00
2010,05,25,18,39,14.00
2010,05,25,18,40,14.00
2010,05,25,18,41,14.00
2010,05,25,18,42,14.00
2010,05,25,18,43,14.00
2010,05,25,18,44,13.90
2010,05,25,18,45,13.90
2010,05,25,18,46,13.90
2010,05,25,18,47,13.90
2010,05,25,18,48,13.90
2010,05,25,18,49,13.90
2010,05,25,18,50,13.80
2010,05,25,18,51,13.90
2010,05,25,18,52,13.90
2010,05,25,18,53,13.90
2010,05,25,18,54,13.90
2010,05,25,18,55,13.90
2010,05,25,18,56,13.90
2010,05,25,18,57,13.90
2010,05,25,18,58,13.90
2010,05,25,18,59,13.90
2010,05,25,19,00,13.90
2010,05,25,19,01,13.80
2010,05,25,19,02,13.80
2010,05,25,19,03,13.80
2010,05,25,19,04,13.80
2010,05,25,19,05,13.80
2010,05,25,19,06,13.80
2010,05,25,19,07,13.80
2010,05,25,19,08,13.80
2010,05,25,19,09,13.80
2010,05,25,19,10,13.80
2010,05,25,19,11,13.80
2010,05,25,19,12,13.80
2010,05,25,19,13,13.80
2010,05,25,19,14,13.80
2010,05,25,19,15,13.80
2010,05,25,19,16,13.80
2010,05,25,19,17,13.80
2010,05,25,19,18,13.80
2010,05,25,19,19,13.80
2010,05,25,19,20,13.80
2010,05,25,19,21,13.80
2010,05,25,19,22,13.80
2010,05,25,19,23,13.80
2010,05,25,19,24,13.80
2010,05,25,19,25,13.80
2010,05,25,19,26,13.80
2010,05,25,19,27,13.80
2010,05,25,19,28,13.80
2010,05,25,19,29,13.80
2010,05,25,19,30,13.80
2010,05,25,19,31,13.80
2010,05,25,19,32,13.80
2010,05,25,19,33,13.80
2010,05,25,19,34,13.80
2010,05,25,19,35,13.80
2010,05,25,19,36,13.80
2010,05,25,19,37,13.80
2010,05,25,19,38,13.80
2010,05,25,19,39,13.80
2010,05,25,19,40,13.80
2010,05,25,19,41,13.80
2010,05,25,19,42,13.80
2010,05,25,19,43,13.80
2010,05,25,19,44,13.80
2010,05,25,19,45,13.70
2010,05,25,19,46,13.70
2010,05,25,19,47,13.70
2010,05,25,19,48,13.60
2010,05,25,19,49,13.60
2010,05,25,19,50,13.60
2010,05,25,19,51,13.60
2010,05,25,19,52,13.60
2010,05,25,19,53,13.60
2010,05,25,19,54,13.60
2010,05,25,19,55,13.60
2010,05,25,19,56,13.60
2010,05,25,19,57,13.60
2010,05,25,19,58,13.50
2010,05,25,19,59,13.50
2010,05,25,20,00,13.50
2010,05,25,20,01,13.50
2010,05,25,20,02,13.40
2010,05,25,20,03,13.40
2010,05,25,20,04,13.40
2010,05,25,20,05,13.40
2010,05,25,20,06,13.40
2010,05,25,20,07,13.40
2010,05,25,20,08,13.40
2010,05,25,20,09,13.40
2010,05,25,20,10,13.40
2010,05,25,20,11,13.40
2010,05,25,20,12,13.40
2010,05,25,20,13,13.40
2010,05,25,20,14,13.40
2010,05,25,20,15,13.40
2010,05,25,20,16,13.40
2010,05,25,20,17,13.40
2010,05,25,20,18,13.50
2010,05,25,20,19,13.50
2010,05,25,20,20,13.50
2010,05,25,20,21,13.50
2010,05,25,20,22,13.50
2010,05,25,20,23,13.50
2010,05,25,20,24,13.50
2010,05,25,20,25,13.50
2010,05,25,20,26,13.50
2010,05,25,20,27,13.50
2010,05,25,20,28,13.50
2010,05,25,20,29,13.50
2010,05,25,20,30,13.60
2010,05,25,20,31,13.50
2010,05,25,20,32,13.50
2010,05,25,20,33,13.50
2010,05,25,20,34,13.50
2010,05,25,20,35,13.50
2010,05,25,20,36,13.40
2010,05,25,20,37,13.40
2010,05,25,20,38,13.40
2010,05,25,20,39,13.40
2010,05,25,20,40,13.30
2010,05,25,20,41,13.30
2010,05,25,20,42,13.30
2010,05,25,20,43,13.30
2010,05,25,20,44,13.30
2010,05,25,20,45,13.20
2010,05,25,20,46,13.20
2010,05,25,20,47,13.20
2010,05,25,20,48,13.20
2010,05,25,20,49,13.10
2010,05,25,20,50,13.10
2010,05,25,20,51,13.10
2010,05,25,20,52,13.10
2010,05,25,20,53,13.10
2010,05,25,20,54,13.10
2010,05,25,20,55,13.00
2010,05,25,20,56,13.00
2010,05,25,20,57,12.90
2010,05,25,20,58,12.90
2010,05,25,20,59,12.90
2010,05,25,21,00,12.90
2010,05,25,21,01,12.90
2010,05,25,21,02,12.80
2010,05,25,21,03,12.80
2010,05,25,21,04,12.80
2010,05,25,21,05,12.80
2010,05,25,21,06,12.80
2010,05,25,21,07,12.70
2010,05,25,21,08,12.70
2010,05,25,21,09,12.70
2010,05,25,21,10,12.70
2010,05,25,21,11,12.60
2010,05,25,21,12,12.60
2010,05,25,21,13,12.60
2010,05,25,21,14,12.60
2010,05,25,21,15,12.60
2010,05,25,21,16,12.50
2010,05,25,21,17,12.50
2010,05,25,21,18,12.50
2010,05,25,21,19,12.50
2010,05,25,21,20,12.40
2010,05,25,21,21,12.40
2010,05,25,21,22,12.40
2010,05,25,21,23,12.40
2010,05,25,21,24,12.30
2010,05,25,21,25,12.30
2010,05,25,21,26,12.30
2010,05,25,21,27,12.30
2010,05,25,21,28,12.20
2010,05,25,21,29,12.20
2010,05,25,21,30,12.20
2010,05,25,21,31,12.20
2010,05,25,21,32,12.20
2010,05,25,21,33,12.20
2010,05,25,21,34,12.10
2010,05,25,21,35,12.10
2010,05,25,21,36,12.10
2010,05,25,21,37,12.10
2010,05,25,21,38,12.10
2010,05,25,21,39,12.10
2010,05,25,21,40,12.10
2010,05,25,21,41,12.00
2010,05,25,21,42,12.00
2010,05,25,21,43,12.00
2010,05,25,21,44,12.00
2010,05,25,21,45,12.00
2010,05,25,21,46,11.90
2010,05,25,21,47,11.90
2010,05,25,21,48,11.90
2010,05,25,21,49,11.90
2010,05,25,21,50,11.90
2010,05,25,21,51,11.90
2010,05,25,21,52,11.90
2010,05,25,21,53,11.90
2010,05,25,21,54,11.90
2010,05,25,21,55,11.90
2010,05,25,21,56,11.90
2010,05,25,21,57,11.90
2010,05,25,21,58,11.90
2010,05,25,21,59,11.80
2010,05,25,22,00,11.80
2010,05,25,22,01,11.70
2010,05,25,22,02,11.70
2010,05,25,22,03,11.70
2010,05,25,22,04,11.60
2010,05,25,22,05,11.60
2010,05,25,22,06,11.60
2010,05,25,22,07,11.60
2010,05,25,22,08,11.60
2010,05,25,22,09,11.60
2010,05,25,22,10,11.60
2010,05,25,22,11,11.60
2010,05,25,22,12,11.60
2010,05,25,22,13,11.60
2010,05,25,22,14,11.60
2010,05,25,22,15,11.60
2010,05,25,22,16,11.60
2010,05,25,22,17,11.60
2010,05,25,22,18,11.60
2010,05,25,22,19,11.60
2010,05,25,22,20,11.60
2010,05,25,22,21,11.70
2010,05,25,22,22,11.70
2010,05,25,22,23,11.70
2010,05,25,22,24,11.70
2010,05,25,22,25,11.70
2010,05,25,22,26,11.70
2010,05,25,22,27,11.60
2010,05,25,22,28,11.60
2010,05,25,22,29,11.60
2010,05,25,22,30,11.60
2010,05,25,22,31,11.60
2010,05,25,22,32,11.60
2010,05,25,22,33,11.60
2010,05,25,22,34,11.60
2010,05,25,22,35,11.60
2010,05,25,22,36,11.60
2010,05,25,22,37,11.60
2010,05,25,22,38,11.60
2010,05,25,22,39,11.60
2010,05,25,22,40,11.60
2010,05,25,22,41,11.60
2010,05,25,22,42,11.60
2010,05,25,22,43,11.60
2010,05,25,22,44,11.60
2010,05,25,22,45,11.60
2010,05,25,22,46,11.60
2010,05,25,22,47,11.50
2010,05,25,22,48,11.50
2010,05,25,22,49,11.50
2010,05,25,22,50,11.50
2010,05,25,22,51,11.50
2010,05,25,22,52,11.50
2010,05,25,22,53,11.50
2010,05,25,22,54,11.50
2010,05,25,22,55,11.50
2010,05,25,22,56,11.50
2010,05,25,22,57,11.40
2010,05,25,22,58,11.40
2010,05,25,22,59,11.40
2010,05,25,23,00,11.40
2010,05,25,23,01,11.40
2010,05,25,23,02,11.40
2010,05,25,23,03,11.40
2010,05,25,23,04,11.40
2010,05,25,23,05,11.40
2010,05,25,23,06,11.40
2010,05,25,23,07,11.40
2010,05,25,23,08,11.40
2010,05,25,23,09,11.40
2010,05,25,23,10,11.40
2010,05,25,23,11,11.40
2010,05,25,23,12,11.40
2010,05,25,23,13,11.40
2010,05,25,23,14,11.40
2010,05,25,23,15,11.40
2010,05,25,23,16,11.30
2010,05,25,23,17,11.30
2010,05,25,23,18,11.30
2010,05,25,23,19,11.30
2010,05,25,23,20,11.30
2010,05,25,23,21,11.30
2010,05,25,23,22,11.20
2010,05,25,23,23,11.20
2010,05,25,23,24,11.20
2010,05,25,23,25,11.20
2010,05,25,23,26,11.20
2010,05,25,23,27,11.20
2010,05,25,23,28,11.20
2010,05,25,23,29,11.20
2010,05,25,23,30,11.10
2010,05,25,23,31,11.10
2010,05,25,23,32,11.10
2010,05,25,23,33,11.10
2010,05,25,23,34,11.00
2010,05,25,23,35,11.00
2010,05,25,23,36,10.90
2010,05,25,23,37,10.90
2010,05,25,23,38,10.90
2010,05,25,23,39,10.90
2010,05,25,23,40,10.90
2010,05,25,23,41,10.90
2010,05,25,23,42,10.80
2010,05,25,23,43,10.80
2010,05,25,23,44,10.80
2010,05,25,23,45,10.80
2010,05,25,23,46,10.80
2010,05,25,23,47,10.80
2010,05,25,23,48,10.70
2010,05,25,23,49,10.70
2010,05,25,23,50,10.70
2010,05,25,23,51,10.70
2010,05,25,23,52,10.70
2010,05,25,23,53,10.70
2010,05,25,23,54,10.60
2010,05,25,23,55,10.60
2010,05,25,23,56,10.60
2010,05,25,23,57,10.60
2010,05,25,23,58,10.60
2010,05,25,23,59,10.60
